Regional Weather Roundup
Issued by NWS

Home | Current Version | Previous Version | Text Only | Print | Product List | Glossary On
Versions: 1 2 3 4 5 6 7 8 9 10 11 12 13 14 15 16 17 18 19 20 21 22 23 24 25 26 27 28 29 30 31 32 33 34 35 36 37 38 39 40 41 42 43 44 45 46 47 48 49 50
245
ASUS43 KLSX 061907
RWRMO

WEATHER SUMMARY FOR MISSOURI
NATIONAL WEATHER SERVICE SPRINGFIELD MO
100 PM CST SAT FEB 06 2016

NOTE: "FAIR" INDICATES FEW OR NO CLOUDS BELOW 12,000 FEET WITH NO
       SIGNIFICANT WEATHER AND/OR OBSTRUCTIONS TO VISIBILITY.
       CURRENT SKY AND/OR WEATHER CONDITIONS ARE NOT AVAILABLE FOR
       CHILLICOTHE AND FARMINGTON.

MOZ001>031-035>038-043-044-053-054-062000-
...NORTHERN AND WESTERN MISSOURI...

CITY           SKY/WX    TMP DP  RH WIND       PRES   REMARKS
KANSAS CTY INT MOSUNNY   45  32  60 SW9       30.24F
KANSAS C DTWN  SUNNY     48  31  51 SW8       30.25F
LEE`S SUMMIT   SUNNY     47  30  51 W8        30.26F
ST JOSEPH      SUNNY     44  32  62 W7        30.25F
CHILLICOTHE      N/A     46  33  60 VRB5      30.24F
KIRKSVILLE     SUNNY     46  28  49 SW12      30.21F

$$
MOZ066>068-077>081-088>096-101>105-062000-
...SOUTHWEST MISSOURI...

CITY           SKY/WX    TMP DP  RH WIND       PRES   REMARKS
SPRINGFIELD    SUNNY     53  29  39 W10G17    30.28F
JOPLIN         SUNNY     52  31  44 SW10      30.30F

$$
MOZ032>034-039>042-045>050-055>058-069>072-062000-
...CENTRAL MISSOURI...

CITY           SKY/WX    TMP DP  RH WIND       PRES   REMARKS
COLUMBIA       SUNNY     53  27  36 SW12      30.23F
JEFFERSON CITY SUNNY     52  28  39 W9        30.25F
ROLLA          SUNNY     52  29  41 W13G23    30.23F
SEDALIA        SUNNY     51  27  39 SW10      30.26F
WHITEMAN AFB   SUNNY     50  26  39 NW12      30.25F
WARRENSBURG    SUNNY     46  28  49 SW8G17    30.26F
OSAGE BEACH    SUNNY     54  28  37 SW13      30.26F

$$
MOZ051-052-059>065-062000-
...EAST CENTRAL MISSOURI...

CITY           SKY/WX    TMP DP  RH WIND       PRES   REMARKS
ST LOUIS INTL  SUNNY     55  28  35 SW10      30.25F
SPIRIT OF STL  SUNNY     53  30  41 SW9       30.24F
ST CHARLES     SUNNY     51  30  44 S8        30.24F

$$
MOZ072>076-082>087-097>100-106>115-062000-
...SOUTH CENTRAL AND SOUTHEAST MISSOURI...

CITY           SKY/WX    TMP DP  RH WIND       PRES   REMARKS
CAPE GIRARDEAU SUNNY     55  21  26 W10       30.29F
FARMINGTON     SUNNY     54  22  28 SW10      30.26F
POPLAR BLUFF   SUNNY     54  23  30 S9        30.30F
WEST PLAINS    SUNNY     53  18  25 SW6       30.29F

$$



USA.gov is the U.S. government's official web portal to all federal, state and local government web resources and services.